Location: Kershaw
(34.5481°N, 80.5823°W)
Time: 16:21:05
(UTC+00:00)

Courier 1B Rocket - Pass Details

Date: 29 September 2022
Orbit: 920 x 1202 km, 28.2° (Epoch: 08 December)

Event Time Altitude Azimuth Distance (km) Brightness Sun altitude
Rises 03:50:10 0° 259° (WSW) 3,568 - -52.5°
Reaches altitude 10° 03:52:51 10° 253° (WSW) 2,610 - -52.8°
Maximum altitude 03:58:49 48° 181° (S) 1,177 - -53.5°
Drops below altitude 10° 04:04:50 10° 108° (ESE) 2,635 - -54.2°
Sets 04:07:34 0° 103° (ESE) 3,605 - -54.4°
